Find Local Weather

World > North America > United States > Oregon

Canby, Oregon Regional Weather

Lat: 45.27N, Lon: 122.69W
Wx Zone: ORZ006
Feedback

Canby, OR Regional Weather

Expires:201903210800;;686770
ASUS46 KPQR 210710
RWROR 

OREGON REGIONAL WEATHER ROUNDUP
NATIONAL WEATHER SERVICE PORTLAND OR
1200 AM PDT THU MAR 21 2019

NOTE: "FAIR" INDICATES FEW OR NO CLOUDS BELOW 12,000 FEET WITH
NO SIGNIFICANT WEATHER AND/OR OBSTRUCTIONS TO VISIBILITY.


ORZ001>013-210800-
NORTHWEST OREGON

  
CITY           SKY/WX    TMP DP  RH WIND       PRES   REMARKS
ASTORIA        MOCLDY    46  43  89 SE5       29.99R                  
TILLAMOOK      CLEAR     45  43  93 E3        30.04R                  
NEWPORT        MOCLDY    48  46  93 S7        30.06R                  
PORTLAND       MOCLDY    54  36  50 E9        29.96R                  
VANCOUVER WA   PTCLDY    49  36  61 CALM      29.96R                  
SCAPPOOSE      PTCLDY    47  37  68 NW5       29.96R                  
HILLSBORO      CLEAR     47  37  68 N3        29.95R                  
AURORA         CLEAR     49  44  83 S7        29.97R                  
MCMINNVILLE    CLEAR     50  40  68 SW10      29.96R                  
SALEM          CLEAR     50  36  58 SE6       29.99R                  
CORVALLIS      CLEAR     48  41  76 W5        30.02R                  
EUGENE         CLEAR     47  41  80 S8        30.03R                  
$$


SKY/WX - Weather  TMP - Temperature  DP - Dew Point  RH - Relative Humidity
WIND - Wind Direction/Speed PRES - Barometric Pressure VSB - Visibility
WCI - Wind Chill Index E13G22 Wind - East Wind 13 mph/Gusts of 22 mph